{"data":{"norad_id":63231,"epoch":"2026-05-25T02:51:19.852992Z","epoch_age_seconds":78464,"freshness":"FRESH","line1":"1 63231U 25052X   26145.11897978  .00007448  00000+0  29477-3 0  9991","line2":"2 63231  97.3949  38.9102 0003534 211.6719 148.4307 15.25731485 66407","mean_motion":15.25731485,"eccentricity":0.0003534,"inclination_deg":97.3949,"raan_deg":38.9102,"arg_perigee_deg":211.6719,"mean_anomaly_deg":148.4307,"bstar":0.00029477,"rev_number":6640,"period_min":94.38095852102,"perigee_km":486.16310138523,"apogee_km":491.01650388933,"semimajor_km":6866.7268026373,"source":"CELESTRAK","updated_at":"2026-05-25T13:38:03.580898Z"}}